Weather History for Fortuna, CA

Change the Weather History Date:

Monday, March 10, 2014

  Actual Average (KEKA) Record (KEKA)
Temperature  
Mean Temperature 50 °F 50 °F  
Max Temperature 55 °F 57 °F 68 °F (1989)
Min Temperature 46 °F 43 °F 30 °F (1951)
Degree Days  
Heating Degree Days 14 15  
Month to date heating degree days 158  
Since 1 July heating degree days 3080  
Cooling Degree Days 0 0  
Month to date cooling degree days 0  
Year to date cooling degree days 0  
Moisture  
Dew Point 47 °F    
Average Humidity 86    
Maximum Humidity 100    
Minimum Humidity 58    
Precipitation  
Precipitation 0.08 in 0.18 in 1.54 in (1904)
Month to date precipitation 1.86  
Year to date precipitation 13.99  
Since 1 July precipitation 31.04  
Snow  
Snow 0.00 in 0.00 in - ()
Month to date snowfall 0.0  
Since 1 July snowfall 0.2  
Snow Depth -    
Sea Level Pressure  
Sea Level Pressure 30.30 in    
Wind  
Wind Speed 8 mph (NW)    
Max Wind Speed 17 mph    
Max Gust Speed 24 mph    
Visibility 8 miles    
Events      
T = Trace of Precipitation, MM = Missing Value Source: NWS Daily Summary

Daily Weather History Graph

Daily Weather History Graph

Search for Another Location

Airport:

Trip Planner

Search our weather history database for the weather conditions in past years. The results will help you decide how hot, cold, wet, or windy it might be!

Date:

Astronomy

Mar. 10, 2014 Rise Set
Actual Time 7:36 AM PDT 7:18 PM PDT
Civil Twilight 7:08 AM PDT 7:45 PM PDT
Nautical Twilight 6:37 AM PDT 8:16 PM PDT
Astronomical Twilight 6:05 AM PDT 8:48 PM PDT
Moon 2:05 PM PDT (3/10) 3:53 AM PDT (3/10)
Length of Visible Light 12h 36m
Length of Day
11h 42m
Waxing Gibbous, 71% of the Moon is Illuminated
Mar 10
Waxing Gibbous
Mar 16
Full
Mar 23
Last Quarter
Mar 30
New
Apr 7
First Quarter

Hourly Weather History & Observations

Time (PDT) Temp. Windchill Dew Point Humidity Pressure Visibility Wind Dir Wind Speed Gust Speed Precip Events Conditions
12:10 AM 51.8 °F - 51.8 °F 100% 30.15 in 5.0 mi Calm Calm - N/A   Overcast
12:30 AM 51.8 °F - 51.8 °F 100% 30.15 in 3.0 mi Calm Calm - 0.01 in   Overcast
12:50 AM 51.8 °F - 51.8 °F 100% 30.15 in 0.2 mi SW 3.5 mph - 0.02 in   Overcast
1:10 AM 51.8 °F - 51.8 °F 100% 30.16 in 2.0 mi SSW 3.5 mph - 0.01 in   Overcast
1:30 AM 51.8 °F - 51.8 °F 100% 30.15 in 1.8 mi Calm Calm - 0.03 in   Overcast
1:50 AM 51.8 °F - 51.8 °F 100% 30.16 in 5.0 mi WNW 4.6 mph - 0.05 in   Overcast
2:10 AM 50.0 °F - 50.0 °F 100% 30.15 in 3.0 mi WNW 5.8 mph - 0.02 in   Overcast
2:30 AM 50.0 °F - 50.0 °F 100% 30.17 in 10.0 mi WNW 5.8 mph - 0.02 in   Overcast
2:50 AM 50.0 °F - 50.0 °F 100% 30.17 in 1.2 mi WNW 8.1 mph - 0.02 in   Overcast
3:10 AM 50.0 °F - 50.0 °F 100% 30.17 in 0.8 mi NW 10.4 mph - N/A   Overcast
3:30 AM 50.0 °F - 50.0 °F 100% 30.17 in 1.0 mi NW 10.4 mph - N/A   Overcast
3:50 AM 50.0 °F - 50.0 °F 100% 30.18 in 0.5 mi NW 10.4 mph - N/A   Overcast
4:10 AM 50.0 °F - 50.0 °F 100% 30.18 in 3.0 mi NNW 10.4 mph - N/A   Overcast
4:30 AM 50.0 °F - 50.0 °F 100% 30.18 in 10.0 mi NW 10.4 mph - N/A   Overcast
4:50 AM 50.0 °F - 50.0 °F 100% 30.19 in 8.0 mi NNW 6.9 mph - N/A   Overcast
5:10 AM 50.0 °F - 50.0 °F 100% 30.19 in 7.0 mi NNW 9.2 mph - N/A   Overcast
5:30 AM 50.0 °F - 50.0 °F 100% 30.19 in 5.0 mi NNW 5.8 mph - 0.01 in   Overcast
5:50 AM 50.0 °F - 50.0 °F 100% 30.20 in 10.0 mi NNW 4.6 mph - 0.01 in   Overcast
6:10 AM 50.0 °F - 50.0 °F 100% 30.20 in 7.0 mi NW 5.8 mph - N/A   Overcast
6:30 AM 50.0 °F - 50.0 °F 100% 30.21 in 8.0 mi NW 9.2 mph - N/A   Overcast
6:50 AM 50.0 °F - 50.0 °F 100% 30.23 in 9.0 mi NW 8.1 mph - N/A   Overcast
7:10 AM 50.0 °F - 50.0 °F 100% 30.23 in 10.0 mi NW 11.5 mph - N/A   Overcast
7:30 AM 48.2 °F - 48.2 °F 100% 30.25 in 10.0 mi NNW 10.4 mph - N/A   Overcast
7:50 AM 48.2 °F - 48.2 °F 100% 30.25 in 10.0 mi NNW 12.7 mph - N/A   Overcast
8:10 AM 48.2 °F - 48.2 °F 100% 30.27 in 10.0 mi NW 12.7 mph 16.1 mph N/A   Overcast
8:30 AM 48.2 °F - 48.2 °F 100% 30.28 in 10.0 mi NNW 9.2 mph - N/A   Overcast
8:50 AM 50.0 °F - 48.2 °F 94% 30.30 in 10.0 mi NNW 11.5 mph - N/A   Mostly Cloudy
9:10 AM 50.0 °F - 48.2 °F 94% 30.30 in 10.0 mi NNW 9.2 mph - N/A   Mostly Cloudy
9:30 AM 50.0 °F - 46.4 °F 87% 30.31 in 10.0 mi NNW 8.1 mph - N/A   Overcast
9:50 AM 50.0 °F - 46.4 °F 87% 30.32 in 10.0 mi NW 6.9 mph - N/A   Overcast
10:10 AM 51.8 °F - 48.2 °F 88% 30.32 in 10.0 mi NNW 10.4 mph - N/A   Mostly Cloudy
10:30 AM 50.0 °F - 46.4 °F 87% 30.33 in 10.0 mi NNW 16.1 mph - N/A   Overcast
10:50 AM 50.0 °F - 46.4 °F 87% 30.34 in 10.0 mi NNW 12.7 mph - N/A   Mostly Cloudy
11:10 AM 53.6 °F - 48.2 °F 82% 30.35 in 10.0 mi NNW 10.4 mph - N/A   Mostly Cloudy
11:30 AM 50.0 °F - 46.4 °F 87% 30.35 in 10.0 mi NNW 15.0 mph - N/A   Mostly Cloudy
11:50 AM 53.6 °F - 46.4 °F 77% 30.35 in 10.0 mi NNW 13.8 mph 19.6 mph N/A   Mostly Cloudy
12:10 PM 53.6 °F - 44.6 °F 72% 30.36 in 10.0 mi NNW 17.3 mph - N/A   Mostly Cloudy
12:30 PM 53.6 °F - 44.6 °F 72% 30.36 in 10.0 mi NNW 13.8 mph 20.7 mph N/A   Mostly Cloudy
12:50 PM 55.4 °F - 46.4 °F 72% 30.36 in 10.0 mi NNW 16.1 mph - N/A   Mostly Cloudy
1:10 PM 55.4 °F - 44.6 °F 67% 30.36 in 10.0 mi NNW 12.7 mph 18.4 mph N/A   Mostly Cloudy
1:30 PM 55.4 °F - 44.6 °F 67% 30.36 in 10.0 mi NNW 13.8 mph 19.6 mph N/A   Scattered Clouds
1:50 PM 55.4 °F - 46.4 °F 72% 30.36 in 10.0 mi NW 15.0 mph 19.6 mph N/A   Scattered Clouds
2:10 PM 55.4 °F - 44.6 °F 67% 30.35 in 10.0 mi NW 12.7 mph 20.7 mph N/A   Mostly Cloudy
2:30 PM 55.4 °F - 44.6 °F 67% 30.35 in 10.0 mi NW 13.8 mph 20.7 mph N/A   Mostly Cloudy
2:50 PM 55.4 °F - 44.6 °F 67% 30.35 in 10.0 mi NW 17.3 mph 21.9 mph N/A   Scattered Clouds
3:10 PM 55.4 °F - 44.6 °F 67% 30.35 in 10.0 mi NW 16.1 mph 24.2 mph N/A   Scattered Clouds
3:30 PM 55.4 °F - 44.6 °F 67% 30.35 in 10.0 mi NW 15.0 mph 24.2 mph N/A   Partly Cloudy
3:50 PM 55.4 °F - 44.6 °F 67% 30.36 in 10.0 mi NNW 16.1 mph - N/A   Scattered Clouds
4:10 PM 55.4 °F - 44.6 °F 67% 30.36 in 10.0 mi NW 15.0 mph - N/A   Mostly Cloudy
4:30 PM 55.4 °F - 41.0 °F 58% 30.36 in 10.0 mi North 13.8 mph - N/A   Mostly Cloudy
4:50 PM 53.6 °F - 42.8 °F 67% 30.36 in 10.0 mi NNW 17.3 mph - N/A   Scattered Clouds
5:10 PM 53.6 °F - 44.6 °F 72% 30.36 in 10.0 mi NW 13.8 mph - N/A   Mostly Cloudy
5:30 PM 53.6 °F - 44.6 °F 72% 30.36 in 10.0 mi North 12.7 mph - N/A   Mostly Cloudy
5:50 PM 53.6 °F - 44.6 °F 72% 30.36 in 10.0 mi NNW 15.0 mph - N/A   Overcast
6:10 PM 51.8 °F - 44.6 °F 76% 30.37 in 10.0 mi NNW 13.8 mph 18.4 mph N/A   Mostly Cloudy
6:30 PM 50.0 °F - 42.8 °F 76% 30.38 in 10.0 mi NNW 11.5 mph 19.6 mph N/A   Scattered Clouds
6:50 PM 50.0 °F - 44.6 °F 82% 30.38 in 10.0 mi NNW 13.8 mph 17.3 mph N/A   Mostly Cloudy
7:10 PM 48.2 °F - 42.8 °F 82% 30.39 in 10.0 mi NNW 13.8 mph - N/A   Mostly Cloudy
7:30 PM 48.2 °F - 42.8 °F 82% 30.39 in 10.0 mi NNW 15.0 mph - N/A   Mostly Cloudy
7:50 PM 48.2 °F - 44.6 °F 87% 30.39 in 10.0 mi NNW 12.7 mph - N/A   Overcast
8:10 PM 48.2 °F - 44.6 °F 87% 30.39 in 10.0 mi NNW 9.2 mph - N/A   Overcast
8:30 PM 48.2 °F - 44.6 °F 87% 30.40 in 10.0 mi NNW 9.2 mph - N/A   Mostly Cloudy
8:50 PM 48.2 °F - 44.6 °F 87% 30.40 in 10.0 mi NNW 9.2 mph - N/A   Overcast
9:10 PM 48.2 °F - 42.8 °F 82% 30.40 in 10.0 mi North 9.2 mph - N/A   Partly Cloudy
9:30 PM 48.2 °F - 42.8 °F 82% 30.40 in 10.0 mi NW 9.2 mph - N/A   Partly Cloudy
9:50 PM 46.4 °F 41.9 °F 42.8 °F 87% 30.41 in 10.0 mi NNW 9.2 mph - N/A   Scattered Clouds
10:10 PM 46.4 °F 41.9 °F 42.8 °F 87% 30.41 in 10.0 mi NNW 9.2 mph - N/A   Scattered Clouds
10:30 PM 46.4 °F 41.1 °F 42.8 °F 87% 30.41 in 10.0 mi NNW 11.5 mph - N/A   Clear
10:50 PM 46.4 °F 41.9 °F 42.8 °F 87% 30.41 in 10.0 mi NNW 9.2 mph - N/A   Clear
11:10 PM 46.4 °F 41.9 °F 42.8 °F 87% 30.41 in 10.0 mi NW 9.2 mph - N/A   Clear
11:30 PM 46.4 °F 42.4 °F 42.8 °F 87% 30.41 in 10.0 mi NNW 8.1 mph - N/A   Clear
11:50 PM 46.4 °F 42.4 °F 42.8 °F 87% 30.41 in 10.0 mi NW 8.1 mph - N/A   Clear